EGLC

London City Airport

Airport
ICAO code
EGLC
IATA Code
LCY
Summary
ICAO Region
EUR
ICAO Territory
Location

Silvertown, England

Serving
London
Elevation
19 ft
Coordinates
51° 30' 18" N , 0° 3' 17" E
KCC
Metar
Observation
EGLC 062220Z AUTO 30005KT 270V010 9999 FEW012 05/03 Q1024
Station
London City Airport
Date/Time
2022-12-06 22:20:00
Wind direction
300°
Wind speed
05 kts
Lowest cloud amount
few clouds
Temperature
5°C
Dew point
3°C
Humidity
86%
QNH
1024 hPa
Weather condition
n/a

Description

Airport serving the City of London and the business district of Canary Wharf in London's Docklands.

Climatology

Temperate Marine climate/Oceanic climate (Köppen climate classification Cfb). Moderately cool summer and comparatively warm winter with a temperature range of only 14°C. Prevailing south-westerly winds from the Atlantic Ocean.

Runways

Designator Length Width Surface Rops
10/28 1508 30 CON Yes/Yes

SKYbrary Partners:

Safety knowledge contributed by: